0 HST 1 20580U 90037B 25293.02252426 .00012443 00000-0 44739-3 0 9992 2 20580 28.4688 277.8363 0002038 4.0227 356.0384 15.27023751751776 0 ISS (ZARYA) 1 25544U 98067A 25292.81490840 .00017254 00000-0 31772-3 0 9996 2 25544 51.6337 49.4445 0004294 312.8540 47.2087 15.49258736534492 0 CXO 1 25867U 99040B 25293.72802329 .00000720 00000-0 00000+0 0 9992 2 25867 52.0284 124.4771 8226367 310.6443 0.1841 0.37811257 16412